STARLINK-35605, 66150

Orbit data source: Space-Track

STARLINK-35605, 66150 is a payload satellite owned by SpaceX/Seattle (US) in LEO that was launched on Sat, 25 Oct 2025 UTC via an FALCON 9 launch vehicle from the Air Force Eastern Test Range (AFETR). Payload-class satellites include a variety of spacecraft equipped with specific instruments for various scientific and technological missions. These include communications satellites like Starlink; space stations such as the ISS; scientific satellites like the Hubble; Earth observation satellites from companies like Planet Labs, Umbra, and HawkEye 360; GPS; miniature CubeSats for education and research; and military/defense satellites.

Loading next visibility...
Identifier
66150, 2025-240E
Orbit
LEO
Country
Flag of USUS
Related business
Manufacturer
SpaceX/Seattle
Mission
Operational Commercial Communications
Bus & Motor
STARLINK V2MO, Unknown motor
Mass
575 kg wet, ~530 kg dry
Launch date (UTC)
2025-10-25 (8 months ago)
Launch vehicle
FALCON 9
Launch site
Air Force Eastern Test Range (AFETR)
Object type
Payload
Rocket body
Debris
Shape & HBR
Box + 2 Pan, 17.7 m
Radar Cross Section
36.964 m², Large (>1 m²)

Expand to show TLE details & history
Last TLE update: 11 hours ago

TLE from 11 hours ago
0 STARLINK-35605
1 66150U 25240E   26171.39764131  .00019535  00000-0  66979-3 0  9995
2 66150  53.1605 305.7353 0001488 116.5384 243.5769 15.30207911 37718
Epoch: 2026-06-20T09:32Z
TLE epoch observation values (Epoch: 2026-06-20T09:32:36.209Z)
Latitude
-0.00004°
Longitude
-106.02845°
Altitude
476.545 km
Speed
7.628 km/s
True Right ascension
20h 22m 56s
True Declination
0° 00' 00"
Sunlit
Object was in full shadow at epoch
Visualization orbit readout
Latitude
Unknown
Longitude
Unknown
Altitude
Unknown
Speed
Unknown
Apparent Right ascension
Unknown
Apparent Declination
Unknown
Sunlit
N/A
Visualization observer readout
Local Sidereal Time
07:17:35
Azimuth
Unknown
Elevation
Unknown
Doppler factor
Unknown
Orbital elements
Apogee altitude
476.468 km
Perigee altitude
474.428 km
Semi-major axis
6,853.585 km
Eccentricity
0.00015
Inclination
53.1605°
RAAN
305.7353°
Arg. of periapsis
116.5384°
True anomaly
243.56163°
Mean anomaly
243.5769°
Eccentric anomaly
243.56927°
Mean motion
3.82531 °/min
Orbital period
94.11 mins
BSTAR
0.00066979
Loading maneuver chart data...
Computing Atmospheric mass density...
Loading historical data...
Loading historical data...
Loading historical data...
Loading historical data...
Loading historical data...
Loading historical data...
Loading historical data...

Documentation

Showing up to 5 results
|